Tracking 19795 objects as of 20-Jul-2019
HD Live streaming from Space Station
objects crossing your sky now

THORAD DELTA 1 DEB

Track THORAD DELTA 1 DEB now!
10-day predictions


NORAD ID: 8435
Int'l Code: 1974-089CL
Perigee: 1,464.1 km
Apogee: 1,729.0 km
Inclination: 101.5 °
Period: 118.0 minutes
Semi major axis: 7967 km
RCS: 0.0834 m2 (small)
Launch date: November 15, 1974
Source: United States (US)
Launch site: AIR FORCE WESTERN TEST RANGE (AFWTR)

Note: This is SATELLITE DEBRIS
aabbcc
Your satellite tracking list
Your tracking list is empty




NASA's NSSDC Master Catalog

Two Line Element Set (TLE):
1  8435U 74089CL  19201.08653873 -.00000042  00000-0 -24808-4 0  9995
2  8435 101.5422 235.2779 0166226 105.4086 313.4540 12.20723089991507
Source of the keplerian elements: AFSPC